Wind_Speed
15 15 16 16 17 13 10 9 8 8 8 7 6 6 6 6 6 6 6 6 6 6 6 5 5 5 6 5 6 6 7 7 7 7 8 7 7 8 8 8 8 8 9 8 8 8 7 7 6
15 15 16 18 15 10 10 10 9 9 9 8 8 8 7 6 6 6 6 6 6 6 6 6 6 6 6 6 6 7 7 7 7 7 7 7 7 7 7 7 7 8 8 7 7 8 8 7 6
15 15 17 16 10 9 10 10 10 9 9 9 9 9 8 8 8 7 7 7 7 7 7 7 6 6 6 6 6 7 7 7 6 6 6 7 7 7 7 7 7 7 7 7 8 7 7 6 6
16 18 19 13 10 10 10 10 10 10 9 9 9 9 9 9 9 8 7 7 7 8 9 8 8 7 6 6 6 6 6 5 5 5 6 6 6 6 6 7 7 7 7 7 7 6 6 6 5
16 19 17 11 10 10 10 9 10 10 10 10 10 10 10 10 10 9 9 9 9 9 10 9 9 8 7 6 6 6 5 5 4 5 6 6 6 6 6 6 7 7 7 6 6 5 5 4 4
19 18 13 10 10 9 9 9 9 9 10 10 10 10 10 10 10 10 10 10 10 10 10 9 9 8 7 7 7 6 5 4 4 4 5 6 6 6 6 6 6 6 6 5 5 4 4 4 4
17 17 12 9 8 8 8 8 8 9 9 10 10 10 10 10 10 9 9 9 9 9 9 9 8 8 7 7 7 6 5 5 4 4 4 5 5 6 6 6 5 5 5 5 4 4 4 3 4
16 15 10 7 7 8 8 8 9 9 9 9 10 10 10 10 10 10 10 10 10 9 9 9 8 8 7 7 7 6 5 4 3 3 4 4 4 5 5 4 4 5 5 5 4 3 4 4 3
15 13 7 6 6 6 6 7 9 9 10 10 9 9 9 9 9 10 10 10 10 9 9 9 9 8 7 7 7 6 5 4 4 3 3 3 3 4 4 4 4 4 4 4 3 3 3 3 3
11 10 5 5 5 4 5 7 9 9 10 9 9 9 8 8 9 9 10 10 10 10 9 9 9 9 8 8 7 7 6 5 4 3 2 2 3 3 4 4 4 4 4 3 3 3 3 2 2
7 6 5 4 4 5 6 7 7 8 9 9 9 9 9 8 9 9 10 10 10 10 10 9 9 8 8 8 7 6 6 5 4 3 2 1 3 3 3 3 4 3 3 3 2 2 2 2 1
6 5 5 4 4 5 6 6 6 7 8 9 9 9 8 8 8 9 9 9 10 10 9 9 8 8 7 7 6 6 5 4 3 3 4 3 3 3 3 2 3 3 3 3 2 2 2 1 1
6 5 5 5 5 5 6 5 6 7 8 9 9 9 8 7 8 8 9 9 10 10 10 9 9 8 7 7 7 6 5 5 4 4 3 3 3 3 2 1 2 2 3 3 3 2 2 2 2
4 5 6 6 6 6 6 6 7 7 8 8 8 8 9 8 8 8 9 9 10 10 9 9 9 8 8 8 8 7 6 5 5 4 3 2 2 2 1 1 1 1 2 3 3 4 3 3 3
3 4 5 5 6 6 6 7 8 8 9 8 8 8 8 7 7 8 8 9 9 9 9 9 8 8 8 8 8 8 6 4 4 3 3 3 2 1 1 1 1 1 1 2 2 3 3 4 5
2 4 5 6 7 6 6 8 9 9 8 7 8 8 7 6 6 7 8 9 9 9 9 9 9 8 8 8 9 8 6 5 4 3 3 3 2 1 1 1 2 3 3 3 3 3 4 5 6
3 4 4 7 7 8 7 7 9 9 9 8 8 8 8 7 6 7 7 8 8 9 9 9 9 8 8 8 8 8 7 6 4 3 3 3 2 2 2 2 3 3 3 4 4 4 5 6 6
4 3 6 8 8 8 7 8 10 11 11 10 9 9 8 7 7 7 7 7 7 8 8 9 8 8 8 8 8 8 7 6 5 4 4 4 3 3 3 3 3 4 4 5 5 5 6 7 8
6 5 7 9 11 10 8 9 11 12 12 11 10 10 9 8 8 8 8 8 7 7 7 8 8 8 7 7 8 7 7 6 5 5 4 4 4 3 3 4 4 5 5 5 5 6 7 7 8
8 7 8 10 12 11 10 10 12 14 13 12 11 11 10 9 10 9 9 8 8 8 8 7 8 8 7 7 7 7 7 6 6 6 5 5 5 5 4 4 5 6 6 6 6 6 7 8 9
9 10 10 12 11 10 11 12 12 14 14 13 12 12 11 10 10 9 9 9 9 9 9 8 9 8 7 7 7 7 6 6 5 5 5 6 6 5 5 5 6 6 7 7 7 7 8 8 9
11 11 13 13 12 11 11 14 13 13 15 14 14 13 13 12 11 10 10 10 10 10 9 9 9 8 7 7 7 7 6 6 6 6 6 6 6 6 6 6 7 8 8 8 8 8 8 8 9
13 13 13 13 13 12 11 13 14 14 15 15 15 14 14 14 13 11 10 10 11 11 10 9 10 9 8 7 8 7 7 7 6 6 7 7 7 7 7 7 8 8 8 8 9 9 9 9 9
14 14 13 13 12 14 12 13 15 17 17 17 16 15 16 14 14 13 12 12 12 11 10 10 10 9 8 8 8 7 7 7 7 8 8 8 8 8 8 8 9 9 9 8 9 10 10 10 10
16 14 14 14 14 15 13 14 17 18 18 18 18 16 16 16 16 15 14 13 12 12 11 11 10 10 10 9 9 9 9 9 9 9 9 8 9 9 9 9 10 10 10 10 10 11 11 12 11
17 15 15 16 16 17 15 16 18 19 19 19 19 19 18 18 18 17 17 15 14 13 12 12 11 11 11 11 11 11 11 10 10 10 10 10 10 11 11 12 12 12 12 12 12 13 13 13 13
19 18 17 19 19 19 16 16 17 20 21 20 19 20 20 20 20 19 19 18 17 16 14 13 13 13 13 13 13 13 13 13 12 12 12 12 12 12 13 13 13 14 14 14 14 15 15 15 15
21 20 19 20 20 20 18 17 18 21 22 21 21 21 22 22 22 21 21 21 20 18 17 15 15 14 14 15 15 15 15 14 14 14 14 14 13 14 14 14 15 16 16 16 16 16 16 17 17
21 20 20 20 20 20 19 18 18 21 23 24 24 23 22 22 21 22 23 22 21 19 18 18 18 17 17 17 18 17 17 16 16 16 15 16 15 16 16 15 16 17 18 18 18 19 18 18 19
22 21 21 21 21 21 20 19 19 21 22 24 25 24 23 23 24 24 24 23 23 21 19 20 19 20 20 20 20 20 19 18 18 18 18 18 17 17 17 17 17 18 19 20 20 20 20 20 21
Wind_Direction
83 81 79 74 63 57 55 57 50 52 59 61 62 68 68 67 66 77 79 83 83 83 83 86 96 106 113 112 114 128 130 128 129 129 129 131 130 128 126 125 120 119 119 116 114 113 112 112 114
83 81 77 68 60 57 54 56 55 54 56 58 59 59 57 58 59 69 74 82 84 83 83 83 87 101 110 111 117 125 130 133 134 134 133 134 131 131 131 129 123 121 120 118 116 115 114 114 117
85 80 72 64 49 52 56 55 53 52 55 58 56 56 54 55 57 62 65 74 81 87 87 83 82 94 106 110 119 122 126 133 133 134 134 137 139 138 138 133 127 123 122 119 116 115 113 113 113
86 77 68 60 48 55 55 53 55 51 55 56 55 53 55 58 58 57 62 73 81 88 88 85 83 89 97 106 115 123 126 134 135 136 138 139 137 134 133 134 131 127 124 122 120 118 116 111 110
84 71 64 54 51 57 56 51 52 54 53 55 55 51 52 56 59 57 60 72 76 83 86 87 84 87 87 89 104 116 121 130 133 135 140 140 135 129 130 137 134 128 123 124 127 122 117 111 111
77 73 62 56 47 51 55 52 50 54 52 53 53 50 52 54 57 61 62 66 70 77 80 80 76 76 76 80 90 102 102 115 126 137 142 140 139 135 131 133 135 136 135 133 131 131 125 118 112
73 72 56 41 46 47 48 46 49 49 49 48 49 49 52 53 50 55 58 62 68 71 76 75 74 74 73 77 81 85 92 106 118 136 144 143 143 138 134 131 131 136 140 135 134 134 134 123 115
78 75 62 32 40 51 44 43 44 47 45 44 44 48 49 50 48 50 53 58 59 63 67 62 63 65 67 69 71 74 83 93 103 114 131 140 145 141 142 141 137 134 137 136 134 129 133 131 126
74 70 55 26 29 43 40 39 39 37 44 40 39 43 45 45 46 49 53 56 55 56 57 57 58 57 59 61 66 74 76 78 85 100 114 126 144 148 150 146 138 133 137 139 135 134 142 140 137
69 73 54 27 23 31 30 32 35 26 29 33 32 38 40 41 45 45 48 51 49 48 48 48 49 51 51 55 62 66 67 70 76 86 98 110 135 146 157 157 150 148 146 144 145 154 168 174 173
62 64 63 38 15 21 32 25 27 22 23 25 26 29 33 36 43 46 47 44 43 43 42 43 43 44 43 46 52 56 57 58 58 68 73 115 146 146 150 167 166 166 162 160 169 182 204 208 218
56 50 61 35 11 10 24 21 19 19 17 18 18 21 26 32 39 42 41 44 42 40 38 38 41 42 42 37 39 43 46 42 47 53 62 88 128 140 147 150 168 188 190 199 213 228 239 241 238
59 38 33 23 8 6 10 8 4 5 8 11 13 15 19 35 36 38 37 36 36 36 37 38 37 36 36 33 33 36 37 34 31 40 59 81 106 127 146 163 175 206 215 220 224 238 247 246 237
64 40 29 11 2 5 2 3 2 356 358 359 4 8 11 22 24 28 30 31 31 32 32 31 29 29 30 30 32 28 29 33 33 41 56 77 102 112 99 101 122 208 216 224 237 245 245 239 251
70 16 3 355 351 347 346 356 350 349 348 347 354 359 4 10 18 21 22 22 24 25 24 24 23 21 22 26 23 19 12 21 32 41 55 62 65 83 72 29 5 316 262 260 246 261 249 256 265
307 323 331 332 330 335 342 348 340 338 333 337 344 348 350 353 2 7 10 12 14 13 13 15 17 17 17 15 14 13 11 20 27 32 40 41 32 20 357 333 326 323 314 318 313 307 294 291 290
261 296 311 314 317 315 324 333 327 326 326 323 329 332 332 337 344 347 355 358 2 6 8 8 9 13 12 7 9 14 16 22 24 28 26 16 8 354 351 345 332 325 318 318 311 302 299 299 302
256 266 288 301 301 293 301 313 316 321 317 315 316 323 320 323 327 333 338 343 350 357 359 360 1 3 5 5 4 8 11 17 22 24 16 4 352 340 334 330 328 325 315 314 309 308 308 303 303
245 258 264 277 283 288 289 298 304 309 310 314 314 314 313 314 317 321 322 320 328 336 342 349 350 353 355 357 360 359 5 10 7 7 6 354 350 349 345 337 333 332 328 320 314 314 311 309 304
240 249 261 267 276 285 288 295 299 301 306 311 309 305 305 307 310 312 315 321 323 325 327 336 336 340 342 345 351 354 354 2 8 8 3 350 343 343 339 329 329 324 324 323 322 316 310 313 310
245 251 255 263 271 279 283 283 286 295 301 301 298 299 302 305 303 307 310 310 313 317 320 322 327 330 330 333 337 345 349 352 351 349 352 349 338 337 334 327 329 327 324 325 326 321 314 311 310
251 257 258 262 268 272 275 284 285 286 294 295 294 297 299 298 294 298 300 303 304 305 308 312 317 319 319 320 322 324 336 341 338 341 341 338 333 332 335 336 332 329 325 323 322 323 323 321 321
249 253 258 261 263 268 273 279 284 277 281 287 288 292 295 298 294 296 296 296 298 298 298 305 308 310 308 310 313 315 324 330 332 331 331 331 333 331 323 323 325 324 321 322 319 315 315 316 319
252 254 259 266 267 268 275 276 281 272 270 278 284 286 289 294 294 293 291 290 291 291 291 295 297 299 298 300 308 313 316 318 319 319 319 323 327 325 318 319 319 319 316 315 316 315 315 316 318
251 252 262 271 271 272 275 268 270 272 274 275 279 277 282 287 285 286 286 284 286 285 285 287 287 287 290 297 303 304 306 307 309 311 313 315 317 319 314 312 312 313 311 309 308 311 315 314 315
256 249 251 261 267 274 269 262 265 276 275 276 279 277 277 278 278 279 281 279 278 280 280 278 280 281 286 293 296 296 297 299 301 303 303 303 305 308 309 309 307 305 305 305 306 309 311 311 311
250 248 249 257 263 269 269 266 267 273 277 278 275 273 274 276 278 279 279 277 275 274 274 275 278 280 284 288 291 291 291 294 293 294 294 296 296 299 303 305 305 307 305 305 307 311 310 307 306
250 250 250 250 256 264 266 268 266 266 270 271 269 270 272 272 272 273 276 276 276 276 270 271 275 276 279 282 285 288 289 291 291 292 291 292 293 296 300 301 302 303 306 308 307 306 306 305 304
253 250 249 252 253 258 265 264 260 265 270 271 270 270 272 271 271 272 274 277 276 275 272 272 272 272 275 278 280 281 283 286 288 290 290 289 288 292 296 300 302 303 304 304 305 308 308 306 305
252 252 251 253 253 253 257 264 262 265 268 270 268 268 269 270 269 269 271 272 273 274 272 271 272 272 273 275 276 277 279 281 283 285 287 285 284 289 293 297 300 301 303 302 303 303 304 304 304
Height
5889 5889 5889 5890 5889 5889 5888 5888 5887 5886 5885 5885 5884 5883 5882 5882 5883 5884 5882 5880 5880 5880 5880 5880 5880 5880 5880 5880 5881 5881 5881 5882 5883 5883 5884 5885 5885 5886 5887 5888 5889 5890 5891 5892 5893 5894 5895 5896 5897
5892 5893 5892 5891 5892 5892 5892 5891 5890 5889 5888 5887 5886 5885 5884 5884 5883 5883 5882 5881 5882 5882 5882 5882 5881 5881 5881 5882 5882 5882 5883 5884 5884 5885 5885 5886 5887 5887 5889 5890 5891 5892 5893 5894 5895 5896 5896 5897 5898
5895 5895 5893 5894 5895 5895 5894 5893 5892 5891 5890 5889 5888 5888 5887 5886 5885 5884 5883 5883 5883 5883 5883 5883 5883 5882 5882 5883 5883 5884 5885 5885 5886 5887 5887 5888 5888 5889 5890 5891 5892 5893 5894 5895 5896 5897 5898 5899 5899
5897 5895 5896 5899 5898 5897 5897 5896 5895 5894 5892 5891 5891 5890 5888 5887 5887 5886 5885 5885 5884 5884 5884 5884 5884 5884 5884 5884 5885 5885 5886 5887 5887 5888 5888 5889 5890 5891 5891 5893 5894 5895 5896 5896 5897 5898 5899 5900 5900
5898 5897 5899 5901 5901 5900 5899 5898 5897 5896 5895 5894 5893 5892 5891 5890 5889 5888 5887 5887 5886 5886 5886 5886 5886 5886 5886 5886 5886 5886 5887 5888 5888 5889 5890 5890 5891 5892 5893 5894 5895 5896 5897 5898 5899 5899 5900 5900 5901
5900 5900 5903 5904 5904 5903 5902 5901 5900 5899 5897 5896 5895 5894 5893 5892 5891 5890 5889 5889 5889 5888 5888 5888 5888 5888 5888 5888 5888 5888 5889 5889 5890 5890 5891 5891 5892 5893 5894 5895 5896 5897 5898 5899 5899 5900 5901 5901 5902
5903 5903 5907 5907 5907 5906 5905 5903 5903 5901 5900 5899 5898 5897 5895 5895 5894 5893 5892 5891 5891 5890 5890 5890 5890 5890 5890 5890 5890 5890 5890 5890 5891 5891 5892 5893 5893 5894 5895 5897 5897 5898 5899 5900 5900 5901 5902 5902 5903
5906 5909 5911 5910 5909 5908 5907 5906 5905 5904 5902 5901 5900 5899 5898 5897 5896 5895 5894 5893 5893 5892 5892 5892 5892 5892 5892 5891 5891 5892 5892 5892 5892 5892 5893 5894 5894 5895 5896 5897 5898 5899 5900 5901 5901 5902 5902 5903 5903
5911 5913 5914 5912 5911 5910 5909 5908 5907 5906 5904 5904 5903 5902 5900 5899 5898 5897 5896 5895 5895 5894 5894 5894 5894 5894 5893 5893 5893 5893 5893 5893 5893 5893 5894 5894 5895 5896 5897 5898 5899 5900 5901 5902 5902 5903 5903 5904 5904
5914 5915 5916 5915 5913 5912 5911 5910 5909 5908 5907 5906 5905 5903 5902 5901 5900 5899 5898 5897 5897 5897 5896 5895 5895 5895 5895 5894 5894 5894 5894 5894 5894 5894 5894 5894 5895 5896 5898 5899 5900 5901 5901 5902 5903 5903 5904 5904 5905
5917 5917 5917 5916 5915 5914 5913 5912 5911 5910 5910 5908 5907 5906 5904 5903 5902 5901 5900 5900 5899 5898 5898 5897 5897 5897 5896 5896 5895 5895 5895 5895 5895 5895 5894 5893 5894 5896 5897 5899 5900 5901 5902 5903 5903 5904 5904 5905 5905
5920 5919 5919 5918 5917 5916 5915 5915 5913 5912 5911 5910 5909 5907 5906 5905 5904 5903 5902 5901 5901 5900 5899 5899 5898 5898 5898 5897 5897 5896 5896 5896 5896 5895 5894 5893 5894 5896 5898 5899 5900 5901 5902 5903 5904 5904 5905 5905 5905
5921 5921 5920 5919 5919 5918 5917 5916 5915 5914 5913 5911 5910 5909 5908 5906 5905 5905 5904 5904 5903 5902 5901 5901 5900 5899 5899 5898 5897 5897 5897 5896 5896 5896 5895 5895 5896 5897 5899 5900 5900 5901 5902 5903 5904 5904 5905 5905 5905
5922 5922 5922 5921 5921 5920 5919 5917 5917 5915 5914 5913 5912 5911 5909 5908 5907 5907 5906 5906 5905 5904 5903 5902 5902 5901 5900 5899 5899 5898 5897 5897 5896 5896 5897 5897 5898 5899 5900 5900 5901 5902 5902 5903 5904 5904 5905 5905 5905
5922 5922 5923 5923 5922 5921 5920 5919 5917 5916 5915 5914 5913 5912 5911 5910 5909 5909 5908 5907 5906 5906 5905 5904 5903 5902 5902 5901 5900 5899 5897 5897 5897 5897 5898 5898 5899 5899 5900 5901 5902 5902 5902 5903 5903 5903 5904 5904 5905
5921 5923 5924 5924 5923 5922 5922 5920 5918 5917 5916 5915 5913 5913 5912 5911 5910 5910 5909 5909 5908 5907 5906 5905 5904 5904 5903 5902 5901 5900 5899 5898 5898 5898 5899 5899 5900 5900 5901 5902 5902 5902 5902 5903 5903 5903 5903 5904 5904
5922 5923 5924 5924 5924 5923 5922 5920 5919 5917 5916 5915 5914 5913 5912 5911 5911 5911 5910 5909 5909 5908 5907 5906 5906 5905 5904 5903 5902 5901 5900 5899 5899 5899 5900 5900 5900 5901 5901 5902 5902 5902 5902 5902 5903 5903 5903 5903 5903
5922 5923 5924 5924 5924 5923 5922 5921 5919 5918 5917 5915 5913 5913 5913 5912 5911 5911 5910 5910 5909 5909 5908 5907 5907 5906 5905 5904 5903 5902 5901 5901 5900 5900 5900 5901 5901 5901 5902 5902 5902 5902 5902 5902 5902 5902 5902 5902 5902
5922 5923 5924 5925 5923 5923 5921 5921 5921 5919 5917 5915 5914 5913 5912 5912 5912 5911 5910 5910 5909 5909 5909 5908 5907 5907 5906 5905 5904 5903 5902 5902 5902 5901 5901 5901 5901 5901 5901 5902 5902 5902 5902 5901 5901 5901 5901 5901 5900
5921 5922 5924 5924 5922 5921 5921 5921 5920 5918 5917 5915 5914 5913 5911 5911 5911 5911 5910 5910 5909 5909 5908 5908 5907 5907 5906 5905 5905 5904 5903 5903 5903 5902 5902 5902 5901 5902 5901 5902 5902 5901 5901 5901 5901 5900 5900 5900 5899
5919 5920 5921 5921 5920 5920 5921 5920 5919 5918 5916 5915 5914 5912 5911 5910 5910 5910 5909 5909 5909 5908 5908 5907 5907 5906 5906 5906 5905 5904 5904 5903 5903 5903 5902 5902 5902 5902 5901 5901 5901 5901 5900 5900 5900 5899 5899 5898 5898
5916 5917 5918 5918 5918 5919 5920 5918 5918 5916 5915 5914 5912 5911 5910 5909 5909 5908 5908 5908 5908 5907 5907 5907 5906 5906 5906 5905 5905 5905 5904 5903 5903 5903 5902 5902 5902 5901 5901 5901 5901 5900 5900 5899 5899 5898 5898 5897 5896
5913 5914 5915 5915 5915 5916 5917 5917 5916 5913 5913 5912 5911 5910 5909 5907 5906 5906 5907 5907 5906 5906 5906 5906 5905 5905 5905 5905 5905 5904 5904 5903 5903 5903 5902 5902 5901 5901 5901 5900 5900 5900 5899 5898 5898 5897 5896 5896 5895
5910 5911 5912 5912 5913 5914 5915 5916 5914 5911 5910 5909 5909 5908 5907 5906 5905 5905 5905 5904 5904 5904 5904 5904 5904 5904 5904 5904 5904 5903 5903 5903 5903 5902 5902 5901 5901 5900 5900 5900 5899 5898 5898 5897 5896 5896 5895 5894 5893
5907 5908 5909 5910 5911 5911 5912 5912 5911 5907 5907 5906 5905 5905 5905 5904 5903 5902 5902 5902 5902 5902 5902 5903 5903 5903 5902 5902 5902 5902 5902 5902 5902 5901 5901 5900 5900 5899 5899 5898 5898 5897 5896 5895 5895 5894 5893 5892 5890
5903 5905 5906 5908 5909 5908 5909 5909 5908 5904 5904 5903 5902 5902 5902 5901 5900 5900 5900 5899 5900 5900 5900 5900 5901 5901 5901 5900 5900 5900 5900 5900 5900 5899 5899 5899 5899 5898 5898 5897 5896 5895 5894 5893 5893 5892 5891 5890 5889
5898 5900 5903 5904 5903 5904 5905 5905 5903 5901 5900 5899 5900 5899 5898 5898 5897 5896 5897 5896 5897 5897 5897 5897 5898 5898 5898 5898 5898 5898 5898 5898 5898 5897 5897 5897 5897 5896 5896 5895 5894 5893 5892 5891 5890 5889 5888 5887 5886
5893 5895 5897 5898 5898 5899 5901 5901 5900 5897 5896 5895 5895 5895 5894 5894 5894 5893 5892 5892 5893 5892 5892 5892 5894 5895 5895 5895 5895 5895 5895 5895 5895 5894 5894 5894 5894 5893 5893 5892 5891 5890 5889 5888 5887 5886 5885 5884 5883
5889 5890 5891 5892 5893 5895 5895 5897 5896 5894 5891 5891 5890 5890 5890 5889 5889 5888 5888 5887 5888 5888 5889 5890 5890 5891 5891 5892 5891 5891 5891 5891 5891 5891 5891 5891 5891 5890 5889 5889 5888 5887 5886 5885 5884 5882 5881 5880 5879
5883 5884 5886 5887 5887 5888 5889 5892 5890 5888 5887 5886 5885 5884 5884 5884 5884 5883 5882 5882 5883 5883 5883 5885 5885 5886 5886 5887 5887 5887 5887 5887 5887 5887 5887 5887 5886 5886 5886 5885 5885 5884 5883 5881 5880 5879 5877 5876 5874